Other Surface Observations
Issued by NWS Tucson, AZ

Current Version | Previous Version | Text Only | Print | Product List | Glossary On
Versions: 1 2 3 4 5 6 7 8 9 10 11 12 13 14 15 16 17 18 19 20 21 22 23 24 25 26 27 28 29 30 31 32 33 34 35 36 37 38 39 40 41 42 43 44 45 46 47 48 49 50
000
SXUS55 KTWC 312216
OSOTWC

WEATHER ROUNDUP FOR SOUTHEAST ARIZONA
NATIONAL WEATHER SERVICE TUCSON AZ
315 PM MST MON AUG 31 2015

AZZ504>506-514-312315-
LOCATION       SKY/WX    TMP DP  RH WIND       PRES   REMARKS
TUCSON         PTSUNNY   95  60  31 SW12      29.93F
DAVIS-MONTHAN  SUNNY     93  63  36 SW14      29.91F
CHILDRENS PARK N/A      N/A N/A  26 W2                PIMA CO DEQ
ALVERNON/22ND  N/A       98 N/A N/A W4                PIMA CO DEQ
CHERRY/GLENN   N/A      N/A N/A N/A N/A               PIMA CO DEQ
TANGERINE      N/A       97 N/A N/A SW3               PIMA CO DEQ
CONTL RANCH    N/A       98  60  29 S2                PIMA CO DEQ
GRANT/1ST      N/A       63  50  63 SE1               PIMA CO DEQ
CRAYCROFT/22ND N/A       96  58  28 N/A               PIMA CO DEQ
GOLFLINKS/KOLB N/A      N/A N/A N/A N/A               PIMA CO DEQ
AJO/12TH       N/A       96  57  27 N/A               PIMA CO DEQ
SAGUARO EAST   N/A       35   5  28 SW5               PIMA CO DEQ
FAIRGROUNDS    N/A       94 N/A N/A N/A               PIMA CO DEQ
SAGUARO        N/A      101  59  25 S6G12             *SABINO CYN
SAN CARLOS     N/A       99  60  28 E3                *SAN CARLOS
GREEN VALLEY   N/A       88  62  42 SW7               PIMA CO DEQ
HORSE CAMP CYN N/A       91  56  31 W9G18             *ARAVAIPA CYN
RINCON MTNS    N/A       72  55  56 SW3G10            *NR MANNING CAMP
$$

AZZ509>511-312315-
LOCATION       SKY/WX    TMP DP  RH WIND       PRES   REMARKS
SAFFORD        MOSUNNY   95  54  25 S7        29.92F
STRAY HORSE    N/A       60  52  75 N5G10             *
TRAIL CABIN    N/A       65  64  95 SW4G13            *N OF GRANVILLE
BLACK HILLS    N/A       96  57  27 W7G13             *N OF FT THOMAS
DRY LAKE       N/A       78  50  38 E5G12             *NATANES MTNS
NOON CREEK     N/A       89  59  36 E5                *PINALENO MTNS
COLUMBINE      N/A       68  51  54 S5                *PINALENO MTNS
GUTHRIE        N/A       85  53  33 SW7G16            *SW OF GUTHRIE
$$

AZZ502-503-513-312315-
LOCATION       SKY/WX    TMP DP  RH WIND       PRES   REMARKS
NOGALES        MOSUNNY   82  66  58 CALM      30.04F
SELLS          N/A      100  58  25 SW11G18           *
SASABE         N/A       95  59  30 SE7G13            *ALTAR VLY
HOPKINS        N/A       78  58  51 SW6G11            *SANTA RITA MTNS
CARR CYN       N/A       87  57  36 N3                *W OF HEREFORD
$$

AZZ507-508-512-312315-
LOCATION       SKY/WX    TMP DP  RH WIND       PRES   REMARKS
SIERRA VISTA   MOSUNNY   84  57  39 N6        30.11F
DOUGLAS        PTSUNNY   89  52  28 SW8       30.04F
EMPIRE MTNS    N/A       89  54  30 S4G15             *LAS CIENEGAS NCA
MULESHOE RANCH N/A       90  58  34 NW7G12            *PRESERVE
HEADQUARTERS   N/A       85  52  32 SW3               *CHIRICAHUA MTNS
$$

.............................NOTES.............................
THIS IS AN AUTOMATED COLLECTIVE WITH MINIMAL QUALITY CONTROL.
PIMA CO DEQ SITES HAVE NONSTANDARD WIND SENSOR HEIGHTS.
PIMA CO DEQ SITES DO NOT REPORT WIND GUSTS.
* INDICATES WIND SENSORS LOCATED AT 20 FEET INSTEAD OF 33 FEET.
..............................KEY..............................
SKY/WX - SKY CONDITION/WEATHER
TMP    - TEMPERATURE IN FAHRENHEIT
DP     - DEWPOINT IN FAHRENHEIT
RH     - RELATIVE HUMIDITY IN PERCENT
WIND   - DIRECTION AND SPEED IN MILES PER HOUR (MPH)
VRB    - VARIABLE WIND DIRECTION
PRES   - MEAN SEA LEVEL PRESSURE IN INCHES OF MERCURY
         F - FALLING PRESSURE   R - RISING PRESSURE
         S - STEADY PRESSURE
VSB    - VISIBILITY IN MILES
HX     - HEAT INDEX IN FAHRENHEIT
WCI    - WIND CHILL INDEX IN FAHRENHEIT
N/A    - NOT AVAILABLE
AFB    - AIR FORCE BASE
         DAVIS-MONTHAN IS DAVIS-MONTHAN AIR FORCE BASE
CYN    - CANYON
MTNS   - MOUNTAINS
NCA    - NATIONAL CONSERVATION AREA
NR     - NEAR
VLY    - VALLEY
CONTL  - CONTINENTAL
PIMA CO DEQ - PIMA COUNTY DEPT OF ENVIRONMENTAL QUALITY



USA.gov is the U.S. government's official web portal to all federal, state and local government web resources and services.